SB KEPS @ AMSAT $ORB14058.N 2Line Orbital Elements 14058.AMSAT
HR AMSAT ORBITAL ELEMENTS FOR AMATEUR SATELLITES IN NASA FORMAT FROM WA5QGD FORT WORTH,TX February 27, 2014 BID: ORB14058.N
DECODE 2-LINE ELSETS WITH THE FOLLOWING KEY: 1 AAAAAU 00 0 0 BBBBB.BBBBBBBB .CCCCCCCC 00000-0 00000-0 0 DDDZ 2 AAAAA EEE.EEEE FFF.FFFF GGGGGGG HHH.HHHH III.IIII JJ.JJJJJJJJKKKKKZ KEY: A-CATALOGNUM B-EPOCHTIME C-DECAY D-ELSETNUM E-INCLINATION F-RAAN G-ECCENTRICITY H-ARGPERIGEE I-MNANOM J-MNMOTION K-ORBITNUM Z-CHECKSUM
TO ALL RADIO AMATEURS BT
AO-07 1 07530U 74089B 14058.50495721 -.00000054 00000-0 -68701-4 0 9047 2 07530 101.4620 043.9943 0012157 147.8036 007.8748 12.53602678797779 FO-29 1 24278U 96046B 14057.68674848 -.00000034 00000-0 33239-5 0 3184 2 24278 098.5210 086.7630 0350055 224.1944 277.4691 13.53016820865727 SO-33 1 25509U 98061B 14057.45221847 .00001033 00000-0 18966-3 0 6981 2 25509 031.4349 067.7422 0350529 224.3332 261.5401 14.29320340801295 RS-22 1 27939U 03042A 14058.75487636 .00001788 00000-0 34218-3 0 2610 2 27939 097.8019 238.3903 0014089 094.0427 266.2391 14.64925098556702 VO-52 1 28650U 05017B 14058.87866237 .00005905 00000-0 69620-3 0 6711 2 28650 097.5609 069.3467 0026319 155.3110 204.9372 14.84852723477000 HO-68 1 36122U 09072B 14058.81278563 -.00000043 00000-0 00000 0 0 3643 2 36122 100.2668 113.9606 0007892 128.6472 231.5348 13.16312162202041 AO-73 1 39444U 13066AE 14057.67249777 .00003648 00000-0 50149-3 0 754 2 39444 097.7866 132.0770 0061954 241.4602 118.0366 14.77603682 13141 UO-11 1 14781U 84021B 14058.61647949 .00001394 00000-0 18505-3 0 4275 2 14781 097.8658 120.8178 0009378 170.0299 190.1101 14.81338945611746 AO-16 1 20439U 90005D 14057.79201231 .00000275 00000-0 11761-3 0 9650 2 20439 098.4992 357.2603 0012007 123.5601 265.8626 14.32290389258680 LO-19 1 20442U 90005G 14058.41652492 .00000301 00000-0 12694-3 0 9031 2 20442 098.4698 358.8608 0013045 112.4829 247.7738 14.32496343258974 AO-27 1 22825U 93061C 14057.89258346 .00000296 00000-0 13292-3 0 6062 2 22825 098.6514 004.6331 0007341 258.5351 148.0077 14.29663559 65025 IO-26 1 22826U 93061D 14058.46161149 .00000307 00000-0 13621-3 0 3641 2 22826 098.6456 005.4360 0007944 248.6926 111.3408 14.29958700 65238 GO-32 1 25397U 98043D 14058.51539804 .00000177 00000-0 96226-4 0 2877 2 25397 098.4555 020.6769 0000237 205.5330 271.6780 14.23408825812261 NO-44 1 26931U 01043C 14057.75527566 .00000255 00000-0 13052-3 0 5441 2 26931 067.0530 323.2135 0005469 272.6096 087.4379 14.30049350647812 SO-50 1 27607U 02058C 14058.55513718 .00002246 00000-0 34099-3 0 3165 2 27607 064.5560 206.4767 0035379 051.4832 308.9920 14.73452324601331 CO-55 1 27844U 03031E 14058.48342168 .00000486 00000-0 24241-3 0 8663 2 27844 098.7005 068.8343 0009093 226.5754 289.6688 14.21403345552994 CO-57 1 27848U 03031J 14058.02360045 .00000443 00000-0 22389-3 0 8070 2 27848 098.7096 068.0315 0008870 234.8802 186.8496 14.21103462552854 AO-51 1 28375U 04025K 14058.68524427 .00000607 00000-0 19358-3 0 7824 2 28375 098.2393 009.3995 0082256 324.0395 156.7025 14.41293993508133 CP3 1 31129U 07012N 14058.17947786 .00003840 00000-0 85812-3 0 6846 2 31129 097.9226 041.8235 0098851 354.5592 133.2434 14.54297171364048 CO-65 1 32785U 08021C 14058.80885760 .00004530 00000-0 53924-3 0 8803 2 32785 097.7141 113.6477 0014217 183.0784 228.1494 14.84766548315799 PRISM 1 33493U 09002B 14058.80663522 .00007722 00000-0 84214-3 0 6833 2 33493 098.2403 229.9396 0018534 081.4683 278.8621 14.88121042275909 SOHLA-1 1 33496U 09002E 14056.83567825 .00000853 00000-0 14853-3 0 2832 2 33496 098.1552 177.6054 0005741 227.3297 298.3998 14.70609077273142 TISAT-1 1 36799U 10035E 14058.81401404 .00004911 00000-0 58491-3 0 9471 2 36799 098.0189 150.0531 0013252 322.0002 038.0284 14.84746550196485 STUDSAT 1 36801U 10035G 14058.80676119 .00028972 00000-0 27697-2 0 7789 2 36801 098.0339 156.1453 0010090 290.1636 226.6935 14.93149202196783 ALMASAT-1 1 38078U 12006B 14058.14566475 .00044916 00000-0 99885-3 0 9447 2 38078 069.4743 322.9391 0634675 177.6032 297.4325 14.40045666105731 XATCOBEO 1 38082U 12006F 14058.86289166 .00211925 11705-4 26158-2 0 9884 2 38082 069.4507 254.0517 0381000 140.2566 345.4563 15.05109265107668 CUBEBUG-1 1 39153U 13018D 14058.71562747 .00002746 00000-0 39411-3 0 8934 2 39153 098.0490 139.2385 0017796 347.1558 012.9192 14.77211485 45392 ESTCUBE-1 1 39161U 13021C 14058.89365030 .00002183 00000-0 37538-3 0 8665 2 39161 098.1038 140.5890 0010557 030.2635 329.9167 14.69603317 43548 NOAA-10 1 16969U 86073A 14057.54023856 .00000160 00000-0 82056-4 0 6848 2 16969 098.5229 084.5236 0011872 214.7111 298.5731 14.27721634428233 NOAA-11 1 19531U 88089A 14057.28559212 .00000107 00000-0 77542-4 0 7066 2 19531 098.6878 139.0869 0010295 252.1865 107.8186 14.15058894312056 NOAA-12 1 21263U 91032A 14057.47990071 .00000087 00000-0 55127-4 0 1826 2 21263 098.6746 085.5462 0013824 195.6188 302.0162 14.25630041184780 MET-3/5 1 21655U 91056A 14058.50012811 -.00000318 00000-0 -85680-3 0 9136 2 21655 082.5525 073.9182 0012929 206.2013 153.8456 13.17057670 83544 MET-2/21 1 22782U 93055A 14058.73570296 .00000042 00000-0 24185-4 0 9899 2 22782 082.5457 260.1451 0021955 209.3542 202.8119 13.83726201 34980 OKEAN-4 1 23317U 94066A 14058.34515861 .00003201 00000-0 36966-3 0 4671 2 23317 082.5419 170.8823 0022258 103.2874 320.9877 14.85153845 46808 NOAA-14 1 23455U 94089A 14057.47004766 -.00000001 00000-0 22207-4 0 6659 2 23455 098.7826 142.8534 0009120 001.2032 056.9820 14.13951999988307 NOAA-15 1 25338U 98030A 14057.50608021 .00000280 00000-0 13747-3 0 930 2 25338 098.7471 051.6194 0011789 109.1478 051.8657 14.25351849821073 RESURS 1 25394U 98043A 14058.84516809 .00000103 00000-0 62379-4 0 5986 2 25394 098.4002 027.8991 0001265 170.3234 219.3573 14.24372023812759 FENGYUN1 1 25730U 99025A 14057.90844646 .00004701 00000-0 26078-2 0 897 2 25730 098.9045 019.7593 0028789 058.2218 332.3803 14.11438746761968 OKEAN-0 1 25860U 99039A 14058.82605669 .00001481 00000-0 22768-3 0 1861 2 25860 098.0300 023.4427 0001946 089.1926 297.0199 14.75013112786036 NOAA-16 1 26536U 00055A 14057.41957016 .00000256 00000-0 16149-3 0 5805 2 26536 099.0042 117.2314 0011450 136.7099 290.8862 14.12993192692477 NOAA-17 1 27453U 02032A 14057.53374701 .00000224 00000-0 11387-3 0 4867 2 27453 098.3128 063.0863 0012738 136.4184 333.4750 14.24692782606932 NOAA-18 1 28654U 05018A 14057.50482206 .00000373 00000-0 22931-3 0 9671 2 28654 099.1372 034.8540 0013883 211.0987 298.3736 14.11952873451945 NOAA-19 1 33591U 09005A 14057.50539580 .00000224 00000-0 14753-3 0 1394 2 33591 098.9347 002.9411 0015106 073.7203 053.3130 14.11648798260377 HUBBLE 1 20580U 90037B 14056.20236285 .00003552 00000-0 23393-3 0 4452 2 20580 028.4710 052.9924 0003236 166.6181 284.9809 15.04746348107823 ISS 1 25544U 98067A 14058.93342634 .00017599 00000-0 30675-3 0 7760 2 25544 051.6501 281.1813 0003895 183.0253 321.7833 15.50810153874376 CO-58 1 28895U 05043F 14057.52515965 .00001425 00000-0 29512-3 0 7058 2 28895 097.8443 265.0916 0017296 004.4531 355.6821 14.61599529444081 FALCON 1 30776U 07006E 14058.15062757 .00015074 00000-0 81257-3 0 8113 2 30776 035.4298 074.0625 0001059 267.4448 165.8305 15.14020561384031 MAST 1 31126U 07012K 14058.18532644 .00002400 00000-0 53677-3 0 9834 2 31126 097.9040 044.8899 0091821 338.3502 079.0008 14.55015358364397 CAPE1 1 31130U 07012P 14058.67858972 .00003548 00000-0 79700-3 0 9893 2 31130 097.9244 041.8846 0099274 354.1765 005.8270 14.54082142363890 COMPASS 1 32787U 08021E 14057.78179467 .00005625 00000-0 63315-3 0 8677 2 32787 097.7172 114.4500 0014436 180.8033 179.3163 14.86968671315777 AAUSAT2 1 32788U 08021F 14057.76852855 .00007230 00000-0 79998-3 0 8527 2 32788 097.7182 115.2981 0013959 178.9974 181.1273 14.87578711315824 DO-64 1 32789U 08021G 14058.48746194 .00014285 00000-0 14292-2 0 8901 2 32789 097.7353 121.5143 0013406 166.4423 318.5248 14.91465265316130 CO-66 1 32791U 08021J 14057.77919801 .00004495 00000-0 52156-3 0 8489 2 32791 097.7169 113.4285 0014869 183.4129 176.6988 14.85821725315651 RS-30 1 32953U 08025A 14058.76866630 .00000010 00000-0 00000 0 0 6927 2 32953 082.4985 269.2519 0019369 035.8242 324.4132 12.43043064261663 METEOR-M 1 35865U 09049A 14058.80407484 .00000016 00000-0 26483-4 0 3002 2 35865 098.5661 109.4577 0003313 059.8142 300.3352 14.21909631230799 RS-38 1 35869U 09049E 14058.74694093 .00000080 00000-0 55236-4 0 2472 2 35869 098.5579 109.2403 0005377 063.7011 069.7249 14.22183809230814 JUGNU 1 37839U 11058B 14058.66860685 .00000610 00000-0 18411-3 0 5708 2 37839 019.9608 198.6740 0018817 218.0435 253.8056 14.12255242123056 SRMSAT 1 37841U 11058D 14057.80893021 .00000507 00000-0 13486-3 0 5719 2 37841 019.9711 220.9956 0011712 151.5906 339.3053 14.10305522122751 RAX-2 1 37853U 11061D 14057.90747503 .00020940 00000-0 14692-2 0 7365 2 37853 101.7136 035.1378 0223849 015.5256 010.8928 14.87168882126253 AUBIESAT 1 37854U 11061E 14058.54017146 .00027069 00000-0 18454-2 0 7190 2 37854 101.7180 037.5613 0222300 011.4796 101.3961 14.88287954126386 HRBE 1 37855U 11061F 14058.86972807 .00029311 00000-0 20146-2 0 7294 2 37855 101.7185 037.5678 0223890 011.4785 018.4578 14.87763072126411 RS-39 1 38051U 11062C 14058.82960201 .00080050 00000-0 16272-2 0 3024 2 38051 051.6307 047.5615 0009794 106.6805 326.3911 15.45552537117112 E-STAR 1 38079U 12006C 14058.75666784 .00155985 72083-5 24086-2 0 7621 2 38079 069.4590 274.8879 0472716 151.6615 308.6988 14.81667992107091 GOLIAT 1 38085U 12006J 14058.98843941 .00121144 55480-5 19200-2 0 8428 2 38085 069.4650 279.2376 0489033 153.7378 322.6963 14.77768034106996 HORYU-2 1 38340U 12025D 14058.67013101 .00003487 00000-0 56430-3 0 7783 2 38340 098.2479 014.1394 0012415 157.5600 202.6179 14.71908172 95683 RS-40 1 38735U 12041C 14058.94115462 .00000024 00000-0 10000-3 0 5013 2 38735 082.4798 355.6578 0017275 129.6970 230.5641 12.42556777 72018 PROITERES 1 38756U 12047B 14058.96266784 .00001551 00000-0 23995-3 0 6247 2 38756 098.2307 145.4730 0012898 018.2022 341.9617 14.74684497 79086 BEESAT-3 1 39134U 13015E 14057.57476677 .00011117 00000-0 82564-3 0 5137 2 39134 064.8775 128.2108 0017615 327.9819 032.0241 15.03262178 47020 BEESAT-2 1 39136U 13015G 14057.80083083 .00009472 00000-0 71210-3 0 5025 2 39136 064.8745 127.6926 0017858 327.0488 032.9518 15.02906643 47052 LO-75 1 39382U 13064C 14058.15604748 .00067140 00000-0 23388-2 0 1268 2 39382 040.4989 030.7513 0006564 199.6508 160.4574 15.28696817 15128 ZACUBE-1 1 39417U 13066B 14058.42058714 .00002965 00000-0 40984-3 0 2307 2 39417 097.7855 132.7935 0061944 238.8533 120.6592 14.77519061 14486 TRITON-1 1 39427U 13066M 14057.82850709 .00002533 00000-0 43636-3 0 828 2 39427 097.7745 130.2707 0118323 241.3688 117.5599 14.64882345 14238 DELFIN3XT 1 39428U 13066N 14058.81645004 .00004130 00000-0 73108-3 0 876 2 39428 097.7732 130.8208 0129457 238.7051 120.1445 14.62488933 14346 GOMX-1 1 39430U 13066Q 14058.74362586 .00002475 00000-0 48194-3 0 2624 2 39430 097.7710 129.8316 0157062 241.0055 117.5332 14.56335259 14280 $50SAT 1 39436U 13066W 14058.26230829 .00020139 00000-0 22778-2 0 1097 2 39436 097.7885 133.7931 0028848 249.9504 109.8665 14.86182520 14525 LO-74 1 39440U 13066AA 14057.80205148 .00002841 00000-0 43108-3 0 806 2 39440 097.7815 131.4222 0083934 240.1210 119.1663 14.72495143 14339 PUCPSAT-1 1 39442U 13066AC 14058.18907018 .00004633 00000-0 54088-3 0 771 2 39442 097.7890 133.7478 0034365 245.7237 114.0442 14.85221016 13299 /EX
participants (1)
-
Ray Hoad